Torna al catalogo

O3B FM4

AttivoComunicazioniMEO
NORAD 39189·PAYLOAD·🇱🇺 Luxembourg

Lanciato Jun 25, 2013 da Guiana Space Centre

Loading…

Prossimi Passaggi (prossime 24 ore)

TLE

AggiornatoSource: CelesTrak SupGP

Epoca: Sep 15, 2026, 00:00 UTC

1 39189C 13031B   26258.00000000  .00000000  00000+0  00000+0 0  2587
2 39189   0.0404 356.0707 0004441 149.7457  15.8503  5.00115808    19

Traccia O3B FM4 in tempo reale con AllMySat

Download on the App Store